San Martin, CA

4:32 AM PST on December 08, 2016 (GMT -0800)
San Martin

Weather History for KE16 - October, 2012

Change the Weather History Date:

Monday, October 1, 2012

  Actual Average (KWVI) Record (KWVI)
Temperature  
Mean Temperature 78 °F 62 °F  
Max Temperature 98 °F 74 °F 101 °F (2012)
Min Temperature 57 °F 50 °F 43 °F (2016)
Degree Days  
Heating Degree Days 0    
Month to date heating degree days  
Since 1 July heating degree days  
Cooling Degree Days 12    
Month to date cooling degree days  
Year to date cooling degree days  
Growing Degree Days 28 (Base 50)    
Moisture  
Dew Point 40 °F    
Average Humidity 31    
Maximum Humidity 63    
Minimum Humidity 11    
Precipitation  
Precipitation 0.00 in - 0.52 in (1976)
Month to date precipitation  
Year to date precipitation  
Sea Level Pressure  
Sea Level Pressure 29.96 in    
Wind  
Wind Speed 4 mph ()    
Max Wind Speed 16 mph    
Max Gust Speed 21 mph    
Visibility 10.0 miles    
Events      
T = Trace of Precipitation, MM = Missing Value Source: Averaged Metar Reports

Daily Weather History Graph

Daily Weather History Graph

Search for Another Location

Airport or City:

Trip Planner

Search our weather history database for the weather conditions in past years. The results will help you decide how hot, cold, wet, or windy it might be!

Date:

Astronomy

Oct. 01, 2012 Rise Set
Actual Time 7:02 AM PDT 6:48 PM PDT
Civil Twilight 6:36 AM PDT 7:14 PM PDT
Nautical Twilight 6:06 AM PDT 7:44 PM PDT
Astronomical Twilight 5:35 AM PDT 8:15 PM PDT
Moon 7:32 PM PDT (10/1) 8:33 AM PDT (10/1)
Length of Visible Light 12h 38m
Length of Day
11h 46m
Full, 97% of the Moon is Illuminated
Oct 1
Full
Oct 8
Last Quarter
Oct 15
New
Oct 21
First Quarter
Oct 29
Full

Hourly Weather History & Observations

Time (PDT) Temp. Dew Point Humidity Pressure Visibility Wind Dir Wind Speed Gust Speed Precip Events Conditions
12:15 AM 66.2 °F 48.2 °F 52% 30.00 in 10.0 mi Calm Calm - N/A   Clear
12:35 AM 66.2 °F 48.2 °F 52% 30.00 in 10.0 mi Calm Calm - N/A   Clear
1:15 AM 64.4 °F 48.2 °F 56% 30.00 in 10.0 mi Calm Calm - N/A   Clear
2:15 AM 62.6 °F 48.2 °F 59% 30.00 in 10.0 mi North 3.5 mph - N/A   Clear
2:35 AM 60.8 °F 46.4 °F 59% 30.00 in 10.0 mi North 3.5 mph - N/A   Clear
2:55 AM 60.8 °F 46.4 °F 59% 30.00 in 10.0 mi Calm Calm - N/A   Clear
3:15 AM 59.0 °F 46.4 °F 63% 30.00 in 10.0 mi North 4.6 mph - N/A   Clear
3:35 AM 59.0 °F 44.6 °F 59% 30.00 in 10.0 mi North 3.5 mph - N/A   Clear
3:55 AM 59.0 °F 44.6 °F 59% 30.00 in 10.0 mi Calm Calm - N/A   Clear
4:15 AM 59.0 °F 44.6 °F 59% 30.00 in 10.0 mi NNW 3.5 mph - N/A   Clear
4:35 AM 59.0 °F 42.8 °F 55% 30.00 in 10.0 mi Calm Calm - N/A   Clear
5:15 AM 59.0 °F 44.6 °F 59% 30.00 in 10.0 mi Calm Calm - N/A   Clear
5:35 AM 59.0 °F 44.6 °F 59% 30.00 in 10.0 mi Calm Calm - N/A   Clear
5:55 AM 59.0 °F 44.6 °F 59% 30.00 in 10.0 mi Calm Calm - N/A   Clear
6:15 AM 57.2 °F 42.8 °F 59% 30.01 in 10.0 mi Calm Calm - N/A   Clear
6:35 AM 57.2 °F 44.6 °F 63% 30.01 in 10.0 mi Calm Calm - N/A   Unknown
7:15 AM 57.2 °F 44.6 °F 63% 30.01 in 10.0 mi Calm Calm - N/A   Unknown
7:35 AM 57.2 °F 44.6 °F 63% 30.02 in 10.0 mi Calm Calm - N/A   Unknown
7:55 AM 59.0 °F 44.6 °F 59% 30.02 in 10.0 mi Calm Calm - N/A   Unknown
8:15 AM 62.6 °F 42.8 °F 48% 30.02 in 8.0 mi Calm Calm - N/A   Unknown
8:35 AM 64.4 °F 42.8 °F 45% 30.02 in 10.0 mi Calm Calm - N/A   Unknown
8:55 AM 68.0 °F 42.8 °F 40% 30.02 in 10.0 mi Calm Calm - N/A   Unknown
9:15 AM 71.6 °F 42.8 °F 35% 30.02 in 10.0 mi Calm Calm - N/A   Unknown
9:35 AM 73.4 °F 42.8 °F 33% 30.02 in 10.0 mi Calm Calm - N/A   Clear
9:55 AM 75.2 °F 42.8 °F 31% 30.02 in 10.0 mi Calm Calm - N/A   Clear
10:15 AM 77.0 °F 44.6 °F 32% 30.02 in 10.0 mi East 3.5 mph - N/A   Clear
10:35 AM 80.6 °F 42.8 °F 26% 30.01 in 10.0 mi Calm Calm - N/A   Clear
11:15 AM 86.0 °F 37.4 °F 18% 30.00 in 10.0 mi North 4.6 mph - N/A   Clear
11:35 AM 89.6 °F 35.6 °F 15% 29.99 in 10.0 mi NNW 4.6 mph - N/A   Clear
11:55 AM 91.4 °F 33.8 °F 13% 29.98 in 10.0 mi NW 6.9 mph - N/A   Clear
12:15 PM 93.2 °F 32.0 °F 11% 29.98 in 10.0 mi NNW 6.9 mph - N/A   Clear
12:35 PM 93.2 °F 33.8 °F 12% 29.97 in 10.0 mi NNW 5.8 mph - N/A   Clear
12:55 PM 95.0 °F 33.8 °F 12% 29.96 in 10.0 mi North 6.9 mph - N/A   Clear
1:15 PM 96.8 °F 33.8 °F 11% 29.95 in 10.0 mi NW 9.2 mph - N/A   Clear
1:35 PM 96.8 °F 33.8 °F 11% 29.94 in 10.0 mi NW 6.9 mph - N/A   Clear
2:15 PM 98.6 °F 35.6 °F 11% 29.92 in 10.0 mi North 10.4 mph - N/A   Clear
2:35 PM 98.6 °F 35.6 °F 11% 29.91 in 10.0 mi NNW 10.4 mph 16.1 mph N/A   Clear
2:55 PM 98.6 °F 35.6 °F 11% 29.91 in 10.0 mi NNW 11.5 mph 17.3 mph N/A   Clear
3:15 PM 98.6 °F 37.4 °F 12% 29.90 in 10.0 mi NW 12.7 mph - N/A   Clear
3:35 PM 98.6 °F 39.2 °F 13% 29.90 in 10.0 mi NNW 13.8 mph - N/A   Clear
3:55 PM 98.6 °F 41.0 °F 14% 29.89 in 10.0 mi NNW 13.8 mph 17.3 mph N/A   Clear
4:15 PM 98.6 °F 41.0 °F 14% 29.89 in 10.0 mi NNW 13.8 mph 19.6 mph N/A   Clear
4:35 PM 96.8 °F 41.0 °F 15% 29.88 in 10.0 mi NNW 16.1 mph 20.7 mph N/A   Clear
4:55 PM 96.8 °F 41.0 °F 15% 29.88 in 10.0 mi NNW 12.7 mph - N/A   Clear
5:15 PM 95.0 °F 41.0 °F 15% 29.88 in 10.0 mi NNW 15.0 mph 19.6 mph N/A   Clear
5:35 PM 95.0 °F 39.2 °F 14% 29.88 in 10.0 mi NNW 12.7 mph 18.4 mph N/A   Clear
5:55 PM 93.2 °F 39.2 °F 15% 29.88 in 10.0 mi NNW 9.2 mph - N/A   Clear
6:15 PM 93.2 °F 39.2 °F 15% 29.88 in 10.0 mi NNW 10.4 mph 17.3 mph N/A   Clear
6:35 PM 91.4 °F 39.2 °F 16% 29.88 in 10.0 mi NNW 10.4 mph - N/A   Clear
6:55 PM 89.6 °F 41.0 °F 18% 29.89 in 10.0 mi NNW 9.2 mph - N/A   Clear
7:15 PM 87.8 °F 41.0 °F 19% 29.89 in 10.0 mi NNW 9.2 mph - N/A   Clear
7:35 PM 86.0 °F 39.2 °F 19% 29.90 in 10.0 mi NNW 11.5 mph - N/A   Clear
7:55 PM 84.2 °F 37.4 °F 19% 29.90 in 10.0 mi NNW 9.2 mph - N/A   Clear
8:15 PM 82.4 °F 35.6 °F 19% 29.91 in 10.0 mi NNW 10.4 mph - N/A   Clear
8:35 PM 80.6 °F 33.8 °F 18% 29.91 in 10.0 mi NNW 8.1 mph - N/A   Clear
9:15 PM 78.8 °F 32.0 °F 18% 29.92 in 10.0 mi North 8.1 mph - N/A   Clear
9:35 PM 77.0 °F 32.0 °F 19% 29.92 in 10.0 mi North 9.2 mph - N/A   Clear
9:55 PM 77.0 °F 32.0 °F 19% 29.92 in 10.0 mi NNW 9.2 mph - N/A   Clear
10:15 PM 78.8 °F 32.0 °F 18% 29.92 in 10.0 mi NNW 10.4 mph - N/A   Clear
10:35 PM 77.0 °F 33.8 °F 21% 29.92 in 10.0 mi NNW 8.1 mph - N/A   Clear
11:15 PM 77.0 °F 35.6 °F 22% 29.92 in 10.0 mi NW 6.9 mph - N/A   Clear
11:35 PM 75.2 °F 35.6 °F 24% 29.92 in 10.0 mi Calm Calm - N/A   Clear
11:55 PM 71.6 °F 35.6 °F 27% 29.92 in 10.0 mi Calm Calm - N/A   Clear